Location: Lake Sonoma
(38.7200°N, 123.0564°W)
Time: 15:31:45
(UTC-07:00)

Amateur Radio Satellites - All Passes

Search period start: 28 July 2014 15:01
Search period end: 29 July 2014 15:01
Location: Lake Sonoma, 38.7200°N, 123.0564°W

Satellite Date Start Highest point End Downlink Frequencies (MHz)
Time Altitude Azimuth
AO-Echo 28 Jul 15:19:15 15:24:04 36° 263° (W) 15:28:57 ?
Oscar 16 28 Jul 15:30:41 15:32:46 12° 270° (W) 15:34:51 437.025 USB, Beacon 2401.1428
Uosat F 28 Jul 15:38:19 15:42:11 23° 66° (ENE) 15:46:03 435.120 FM
AO-7 28 Jul 15:39:21 15:46:53 39° 62° (ENE) 15:54:25 29.400 - 29.500 MHz
KITSAT 1 28 Jul 15:44:05 15:52:07 63° 57° (ENE) 16:00:05 435.175 FM
ITAMSAT 1 28 Jul 15:48:43 15:52:25 20° 267° (W) 15:56:08 435.822 SSB
TMSAT-1 28 Jul 16:01:56 16:07:03 50° 260° (W) 16:12:12 436.925 FM
AO-27 28 Jul 16:09:45 16:11:46 12° 270° (W) 16:13:47 436.795 MHz FM
Uribyol 2 28 Jul 16:10:42 16:12:17 11° 270° (W) 16:13:51 436.500 FM
JAS-1B 28 Jul 16:23:44 16:31:29 35° 268° (W) 16:40:08 435.800 - 435.900 CW/SSB
UOSAT-12 28 Jul 16:26:27 16:29:46 19° 315° (NW) 16:33:08 437.025 FM, 437.400 FM
Gurwin Techsat 1B 28 Jul 16:27:29 16:31:27 21° 266° (W) 16:35:27 435.225 FM
OPAL 28 Jul 16:29:03 16:33:05 23° 97° (E) 16:37:08 ?
Saudisat 1A 28 Jul 16:35:17 16:39:23 36° 52° (NE) 16:43:27 436.775 MHz
JAS-2 28 Jul 16:56:31 17:01:01 17° 59° (ENE) 17:05:22 435.800 - 435.900 CW/SSB, 435.910 FM
RS-15 28 Jul 17:09:41 17:17:55 23° 333° (NNW) 17:26:11 29.354 - 29.394 USB, Beacon 29.352 USB
Uosat F 28 Jul 17:15:58 17:20:41 40° 261° (W) 17:25:27 435.120 FM
AO-7 28 Jul 17:31:32 17:39:28 47° 259° (W) 17:47:27 29.400 - 29.500 MHz
KITSAT 1 28 Jul 17:40:26 17:46:54 28° 255° (WSW) 17:53:22 435.175 FM
OPAL 28 Jul 18:07:21 18:12:03 39° 292° (WNW) 18:16:47 ?
Saudisat 1A 28 Jul 18:15:22 18:18:44 22° 249° (WSW) 18:22:06 436.775 MHz
Hamsat 28 Jul 18:17:40 18:21:47 66° 76° (ENE) 18:25:57 145.90 MHz
JAS-2 28 Jul 18:37:14 18:45:06 83° 75° (ENE) 18:52:30 435.800 - 435.900 CW/SSB, 435.910 FM
STRAND 1 28 Jul 18:52:19 18:55:24 16° 92° (E) 18:58:28 ?
SO-67 28 Jul 18:59:19 19:02:09 24° 71° (ENE) 19:04:59 435.3500 MHz FM
RS-15 28 Jul 19:29:34 19:36:08 17° 10° (N) 19:42:45 29.354 - 29.394 USB, Beacon 29.352 USB
JAS-2 28 Jul 20:25:35 20:30:39 19° 270° (W) 20:35:35 435.800 - 435.900 CW/SSB, 435.910 FM
STRAND 1 28 Jul 20:29:56 20:34:55 55° 288° (WNW) 20:39:52 ?
HO-68 28 Jul 20:30:41 20:37:06 37° 64° (ENE) 20:43:31 435.675 MHz FM
SO-67 28 Jul 20:32:55 20:35:12 17° 266° (W) 20:37:29 435.3500 MHz FM
UKube-1 28 Jul 20:33:15 20:35:39 15° 64° (ENE) 20:38:03 145.840 MHz, 145.915 MHz
SO-50 28 Jul 21:14:00 21:18:12 30° 50° (NE) 21:22:25 436.795 FM
MaSat-1 28 Jul 21:14:52 21:18:28 36° 106° (ESE) 21:22:39 437.345 MHz
Oscar 11 28 Jul 21:17:42 21:20:55 21° 68° (ENE) 21:24:08 145.825 FM, Beacon 2401.500 USB
FUNcube-1 28 Jul 21:39:56 21:41:58 13° 65° (ENE) 21:43:59 145.950 - 145.970 MHz USB
RS-15 28 Jul 21:42:51 21:52:57 39° 43° (NE) 22:03:18 29.354 - 29.394 USB, Beacon 29.352 USB
UKube-1 28 Jul 22:07:11 22:11:25 50° 260° (W) 22:15:41 145.840 MHz, 145.915 MHz
HO-68 28 Jul 22:18:00 22:24:40 41° 261° (W) 22:31:22 435.675 MHz FM
MaSat-1 28 Jul 22:52:43 22:55:58 21° 308° (NW) 22:59:35 437.345 MHz
Oscar 11 28 Jul 22:53:04 22:56:54 31° 263° (W) 23:00:46 145.825 FM, Beacon 2401.500 USB
SO-50 28 Jul 22:54:30 22:58:45 32° 246° (WSW) 23:03:02 436.795 FM
ISS 28 Jul 23:00:04 23:02:32 20° 131° (SE) 23:05:01 145.800 FM
FUNcube-1 28 Jul 23:13:42 23:17:56 52° 260° (W) 23:22:06 145.950 - 145.970 MHz USB
UOSAT-12 28 Jul 23:15:48 23:20:08 34° 51° (NE) 23:24:25 437.025 FM, 437.400 FM
RS-15 28 Jul 23:55:04 00:05:58 66° 246° (WSW) 00:17:18 29.354 - 29.394 USB, Beacon 29.352 USB
PCSat 28 Jul 23:58:06 00:01:32 17° 105° (ESE) 00:04:59 145.825 MHz
Oscar 10/S400 29 Jul 00:30:53 00:59:07 68° 177° (S) 10:18:33 145.825 - 145.975 CW/USB, Beacon 145.810 USB
ISS 29 Jul 00:35:51 00:39:02 41° 327° (NNW) 00:42:15 145.800 FM
UOSAT-12 29 Jul 00:56:13 01:00:08 26° 248° (WSW) 01:04:01 437.025 FM, 437.400 FM
Sapphire 29 Jul 01:05:37 01:10:57 67° 115° (ESE) 01:16:20 437.095 MHz 1200 baud AX-25 AFSK
Oscar 19 29 Jul 01:34:29 01:37:05 14° 91° (E) 01:39:39 437.125 CW, 437.150 USB
PCSat 29 Jul 01:39:05 01:44:25 60° 301° (WNW) 01:49:47 145.825 MHz
Oscar 16 29 Jul 02:01:24 02:05:47 27° 96° (E) 02:10:09 437.025 USB, Beacon 2401.1428
RS-15 29 Jul 02:12:57 02:16:09 12° 264° (W) 02:19:22 29.354 - 29.394 USB, Beacon 29.352 USB
ISS 29 Jul 02:15:04 02:16:28 12° 346° (NNW) 02:17:53 145.800 FM
JAS-1B 29 Jul 02:22:30 02:28:31 19° 85° (E) 02:33:58 435.800 - 435.900 CW/SSB
ITAMSAT 1 29 Jul 02:22:59 02:26:33 19° 93° (E) 02:30:05 435.822 SSB
AO-27 29 Jul 02:41:30 02:45:59 29° 96° (E) 02:50:25 436.795 MHz FM
Uribyol 2 29 Jul 02:41:40 02:46:12 30° 97° (E) 02:50:41 436.500 FM
Sapphire 29 Jul 02:51:06 02:54:53 19° 313° (NW) 02:58:41 437.095 MHz 1200 baud AX-25 AFSK
Gurwin Techsat 1B 29 Jul 03:04:41 03:08:30 20° 93° (E) 03:12:17 435.225 FM
Oscar 19 29 Jul 03:11:43 03:16:50 65° 286° (WNW) 03:21:57 437.125 CW, 437.150 USB
AO-Echo 29 Jul 03:27:41 03:32:47 87° 103° (ESE) 03:37:40 ?
PCSat 29 Jul 03:28:11 03:29:00 10° 321° (NW) 03:29:48 145.825 MHz
Oscar 16 29 Jul 03:40:32 03:45:07 33° 291° (WNW) 03:49:43 437.025 USB, Beacon 2401.1428
OPAL 29 Jul 03:42:44 03:47:12 36° 67° (ENE) 03:51:42 ?
AO-7 29 Jul 03:47:33 03:48:11 10° 87° (E) 03:48:49 29.400 - 29.500 MHz
ITAMSAT 1 29 Jul 04:01:19 04:06:17 49° 289° (WNW) 04:11:14 435.822 SSB
JAS-1B 29 Jul 04:10:52 04:20:18 86° 286° (WNW) 04:28:15 435.800 - 435.900 CW/SSB
TMSAT-1 29 Jul 04:18:55 04:24:14 74° 102° (ESE) 04:29:30 436.925 FM
AO-27 29 Jul 04:20:54 04:25:27 32° 292° (WNW) 04:29:58 436.795 MHz FM
Uribyol 2 29 Jul 04:21:08 04:25:36 30° 292° (WNW) 04:30:02 436.500 FM
Gurwin Techsat 1B 29 Jul 04:43:36 04:48:41 48° 289° (WNW) 04:53:45 435.225 FM
AO-Echo 29 Jul 05:09:31 05:10:43 11° 301° (WNW) 05:11:54 ?
OPAL 29 Jul 05:22:11 05:26:08 24° 263° (W) 05:30:07 ?
Uosat F 29 Jul 05:24:40 05:29:41 69° 102° (ESE) 05:34:39 435.120 FM
ISS 29 Jul 05:29:26 05:32:10 22° 26° (NNE) 05:34:53 145.800 FM
AO-7 29 Jul 05:34:03 05:42:22 68° 105° (ESE) 05:50:35 29.400 - 29.500 MHz
MaSat-1 29 Jul 05:36:11 05:37:52 11° 45° (NE) 05:39:33 437.345 MHz
PANSAT 29 Jul 06:00:13 06:02:42 16° 173° (S) 06:05:11 not established
TMSAT-1 29 Jul 06:00:51 06:03:29 14° 299° (WNW) 06:06:07 436.925 FM
JAS-1B 29 Jul 06:02:59 06:09:14 21° 307° (NW) 06:15:00 435.800 - 435.900 CW/SSB
Hamsat 29 Jul 06:06:21 06:08:28 13° 91° (E) 06:10:35 145.90 MHz
STRAND 1 29 Jul 06:06:51 06:10:43 22° 65° (ENE) 06:14:34 ?
KITSAT 1 29 Jul 06:10:35 06:18:19 52° 112° (ESE) 06:26:06 435.175 FM
Saudisat 1A 29 Jul 06:43:03 06:44:51 12° 108° (ESE) 06:46:40 436.775 MHz
Uosat F 29 Jul 07:05:22 07:07:51 14° 299° (WNW) 07:10:19 435.120 FM
ISS 29 Jul 07:05:47 07:09:03 49° 223° (SW) 07:12:18 145.800 FM
MaSat-1 29 Jul 07:10:54 07:16:13 71° 64° (ENE) 07:21:11 437.345 MHz
AO-7 29 Jul 07:27:50 07:34:28 28° 303° (WNW) 07:41:05 29.400 - 29.500 MHz
JAS-2 29 Jul 07:34:50 07:40:46 83° 103° (ESE) 07:46:06 435.800 - 435.900 CW/SSB, 435.910 FM
PANSAT 29 Jul 07:39:45 07:42:15 17° 186° (S) 07:44:46 not established
Hamsat 29 Jul 07:40:31 07:44:41 48° 286° (WNW) 07:48:51 145.90 MHz
STRAND 1 29 Jul 07:44:42 07:49:35 43° 261° (W) 07:54:29 ?
SO-67 29 Jul 07:56:58 08:00:10 34° 98° (E) 08:03:20 435.3500 MHz FM
KITSAT 1 29 Jul 08:06:34 08:13:56 37° 311° (NW) 08:21:21 435.175 FM
Saudisat 1A 29 Jul 08:19:31 08:23:54 62° 303° (WNW) 08:28:18 436.775 MHz
PCSat 29 Jul 08:46:45 08:49:27 14° 43° (NE) 08:52:07 145.825 MHz
MaSat-1 29 Jul 08:50:19 08:52:49 14° 261° (W) 08:55:15 437.345 MHz
JAS-2 29 Jul 09:22:17 09:24:52 13° 303° (WNW) 09:27:21 435.800 - 435.900 CW/SSB, 435.910 FM
SO-67 29 Jul 09:31:24 09:32:54 12° 293° (WNW) 09:34:24 435.3500 MHz FM
HO-68 29 Jul 09:46:41 09:53:23 42° 99° (E) 10:00:03 435.675 MHz FM
Sapphire 29 Jul 09:55:04 10:00:11 40° 56° (NE) 10:05:15 437.095 MHz 1200 baud AX-25 AFSK
UKube-1 29 Jul 09:57:04 10:00:53 29° 97° (E) 10:04:40 145.840 MHz, 145.915 MHz
KITSAT 1 29 Jul 10:09:52 10:12:10 11° 338° (NNW) 10:14:27 435.175 FM
PCSat 29 Jul 10:28:16 10:33:43 82° 62° (ENE) 10:39:08 145.825 MHz
Oscar 11 29 Jul 10:41:29 10:45:42 49° 100° (E) 10:49:54 145.825 FM, Beacon 2401.500 USB
FUNcube-1 29 Jul 11:04:19 11:08:01 30° 97° (E) 11:11:45 145.950 - 145.970 MHz USB
SO-50 29 Jul 11:31:11 11:32:17 11° 107° (ESE) 11:33:23 436.795 FM
UKube-1 29 Jul 11:33:30 11:36:56 23° 292° (WNW) 11:40:21 145.840 MHz, 145.915 MHz
HO-68 29 Jul 11:34:35 11:40:56 36° 296° (WNW) 11:47:16 435.675 MHz FM
Sapphire 29 Jul 11:38:54 11:43:22 27° 252° (WSW) 11:47:49 437.095 MHz 1200 baud AX-25 AFSK
RS-15 29 Jul 12:08:19 12:16:05 22° 101° (ESE) 12:23:40 29.354 - 29.394 USB, Beacon 29.352 USB
PCSat 29 Jul 12:14:27 12:16:21 12° 258° (WSW) 12:18:16 145.825 MHz
Oscar 11 29 Jul 12:19:07 12:21:28 15° 295° (WNW) 12:23:49 145.825 FM, Beacon 2401.500 USB
FUNcube-1 29 Jul 12:41:09 12:44:15 20° 292° (WNW) 12:47:22 145.950 - 145.970 MHz USB
Oscar 19 29 Jul 12:50:01 12:53:29 19° 64° (ENE) 12:56:58 437.125 CW, 437.150 USB
AO-Echo 29 Jul 13:03:49 13:05:56 12° 60° (ENE) 13:08:02 ?
JAS-1B 29 Jul 13:05:08 13:10:57 19° 51° (NE) 13:17:01 435.800 - 435.900 CW/SSB
SO-50 29 Jul 13:07:44 13:12:11 71° 303° (WNW) 13:16:43 436.795 FM
Oscar 16 29 Jul 13:17:08 13:21:44 35° 69° (ENE) 13:26:21 437.025 USB, Beacon 2401.1428
UOSAT-12 29 Jul 13:28:11 13:30:15 13° 107° (ESE) 13:32:20 437.025 FM, 437.400 FM
ITAMSAT 1 29 Jul 13:39:36 13:43:51 26° 66° (ENE) 13:48:06 435.822 SSB
Uribyol 2 29 Jul 13:58:12 14:03:02 41° 70° (ENE) 14:07:52 436.500 FM
AO-27 29 Jul 13:58:16 14:03:05 39° 70° (ENE) 14:07:55 436.795 MHz FM
TMSAT-1 29 Jul 14:02:19 14:04:29 13° 60° (ENE) 14:06:39 436.925 FM
KITSAT 1 29 Jul 14:05:36 14:11:45 23° 40° (NE) 14:17:50 435.175 FM
RS-15 29 Jul 14:15:48 14:27:00 86° 300° (WNW) 14:37:59 29.354 - 29.394 USB, Beacon 29.352 USB
Gurwin Techsat 1B 29 Jul 14:24:23 14:28:50 28° 67° (ENE) 14:33:18 435.225 FM
Oscar 19 29 Jul 14:27:28 14:32:25 51° 260° (W) 14:37:24 437.125 CW, 437.150 USB
AO-Echo 29 Jul 14:38:37 14:43:55 86° 257° (WSW) 14:49:17 ?
AO-7 29 Jul 14:43:01 14:48:00 18° 51° (NE) 14:52:59 29.400 - 29.500 MHz
SO-50 29 Jul 14:52:47 14:53:36 10° 322° (NW) 14:54:26 436.795 FM
